N66HR EDDN-EDDM

Flight info

Callsign N66HR
Flight time 0h 32m
Altitude 9000
Route BOLSI1G/28 EDDN/28 BOLSI Y167 AKANU L603 RENLO T466 ROKIL ROKI1B EDDM/26
Aircraft SF50/L-V/N

Departure

Time 2026-05-07 12:27
Airport Nuremberg Airport (EDDN)

Arrival

Time 2026-05-07 12:59
Airport Munich Airport (EDDM)
Time Latitude Longitude Altitude Speed Heading
2026-05-07 12:14 49.49630 11.07079 1012 ft 0 kts 188°
2026-05-07 12:22 49.49611 11.07075 1012 ft 8 kts 173°
2026-05-07 12:22 49.49585 11.07155 1013 ft 9 kts 90°
2026-05-07 12:22 49.49620 11.07216 1015 ft 10 kts 14°
2026-05-07 12:23 49.49628 11.07351 1015 ft 16 kts 99°
2026-05-07 12:23 49.49610 11.07538 1015 ft 19 kts 101°
2026-05-07 12:23 49.49593 11.07708 1019 ft 13 kts 97°
2026-05-07 12:23 49.49573 11.07901 1022 ft 22 kts 96°
2026-05-07 12:24 49.49554 11.08102 1024 ft 18 kts 95°
2026-05-07 12:24 49.49536 11.08272 1024 ft 13 kts 98°
2026-05-07 12:24 49.49580 11.08353 1026 ft 10 kts 13°
2026-05-07 12:24 49.49646 11.08448 1030 ft 12 kts 54°
2026-05-07 12:25 49.49704 11.08550 1033 ft 14 kts 26°
2026-05-07 12:25 49.49786 11.08541 1034 ft 11 kts 318°
2026-05-07 12:25 49.49803 11.08462 1033 ft 0 kts 277°
2026-05-07 12:26 49.49810 11.08369 1031 ft 36 kts 277°
2026-05-07 12:27 49.49886 11.07660 1028 ft 92 kts 273°
2026-05-07 12:27 49.49974 11.06620 1355 ft 108 kts 269°
2026-05-07 12:27 49.50035 11.05390 1818 ft 122 kts 275°
2026-05-07 12:27 49.50178 11.04044 2326 ft 134 kts 275°
2026-05-07 12:28 49.50317 11.02596 2844 ft 143 kts 279°
2026-05-07 12:28 49.50479 11.01062 3359 ft 152 kts 279°
2026-05-07 12:28 49.50654 10.99403 3882 ft 162 kts 279°
2026-05-07 12:28 49.50835 10.97664 4396 ft 174 kts 279°
2026-05-07 12:29 49.51031 10.95753 4920 ft 186 kts 279°
2026-05-07 12:29 49.51236 10.93754 5433 ft 196 kts 278°
2026-05-07 12:29 49.50934 10.91703 5960 ft 206 kts 248°
2026-05-07 12:29 49.50343 10.89660 6474 ft 212 kts 248°
2026-05-07 12:30 49.49721 10.87603 6977 ft 218 kts 247°
2026-05-07 12:30 49.49075 10.85492 7481 ft 222 kts 246°
2026-05-07 12:30 49.48412 10.83334 7987 ft 225 kts 246°
2026-05-07 12:30 49.47748 10.81179 8488 ft 227 kts 246°
2026-05-07 12:31 49.47073 10.78990 9010 ft 228 kts 246°
2026-05-07 12:31 49.46177 10.77005 9492 ft 234 kts 216°
2026-05-07 12:31 49.44600 10.76318 9935 ft 242 kts 186°
2026-05-07 12:31 49.42878 10.76215 10015 ft 260 kts 184°
2026-05-07 12:32 49.41013 10.76168 10014 ft 275 kts 183°
2026-05-07 12:32 49.39037 10.76129 10009 ft 286 kts 183°
2026-05-07 12:32 49.37045 10.76094 10002 ft 290 kts 183°
2026-05-07 12:32 49.35041 10.76060 10002 ft 289 kts 183°
2026-05-07 12:33 49.31052 10.75990 10009 ft 282 kts 182°
2026-05-07 12:33 49.29093 10.75956 10009 ft 280 kts 182°
2026-05-07 12:33 49.27164 10.75923 10008 ft 279 kts 183°
2026-05-07 12:34 49.25216 10.75889 10009 ft 277 kts 183°
2026-05-07 12:34 49.23315 10.75803 9996 ft 275 kts 191°
2026-05-07 12:34 49.21511 10.74913 10002 ft 272 kts 200°
2026-05-07 12:34 49.19740 10.73941 10008 ft 271 kts 202°
2026-05-07 12:35 49.17965 10.72953 9998 ft 271 kts 203°
2026-05-07 12:35 49.16202 10.71972 9998 ft 271 kts 202°
2026-05-07 12:35 49.14418 10.70982 10006 ft 271 kts 202°
2026-05-07 12:35 49.12650 10.70002 10007 ft 271 kts 202°
2026-05-07 12:36 49.10899 10.69030 10003 ft 271 kts 202°
2026-05-07 12:36 49.09113 10.68043 9996 ft 271 kts 202°
2026-05-07 12:36 49.07330 10.67058 9993 ft 271 kts 202°
2026-05-07 12:36 49.05477 10.66648 9994 ft 277 kts 172°
2026-05-07 12:37 49.03783 10.67960 10007 ft 282 kts 140°
2026-05-07 12:37 49.02312 10.69980 9999 ft 283 kts 138°
2026-05-07 12:37 49.00887 10.72024 9990 ft 283 kts 138°
2026-05-07 12:37 48.99474 10.74076 9985 ft 283 kts 137°
2026-05-07 12:38 48.98048 10.76163 9987 ft 283 kts 137°
2026-05-07 12:38 48.96638 10.78227 9984 ft 282 kts 137°
2026-05-07 12:38 48.95236 10.80282 9986 ft 282 kts 137°
2026-05-07 12:38 48.93821 10.82353 9989 ft 282 kts 138°
2026-05-07 12:39 48.92398 10.84435 9990 ft 282 kts 138°
2026-05-07 12:39 48.91007 10.86476 9995 ft 282 kts 138°
2026-05-07 12:39 48.89587 10.88556 9989 ft 282 kts 138°
2026-05-07 12:39 48.88168 10.90632 9993 ft 282 kts 138°
2026-05-07 12:40 48.86750 10.92703 9992 ft 282 kts 138°
2026-05-07 12:40 48.85341 10.94763 9994 ft 282 kts 138°
2026-05-07 12:40 48.83917 10.96843 9994 ft 282 kts 138°
2026-05-07 12:40 48.82583 10.99020 9975 ft 285 kts 122°
2026-05-07 12:41 48.81617 11.01584 10012 ft 284 kts 120°
2026-05-07 12:41 48.80676 11.04232 10003 ft 285 kts 119°
2026-05-07 12:41 48.79753 11.06900 10001 ft 284 kts 118°
2026-05-07 12:41 48.78851 11.09547 10011 ft 284 kts 118°
2026-05-07 12:42 48.77945 11.12225 10012 ft 285 kts 118°
2026-05-07 12:42 48.77046 11.14886 10008 ft 285 kts 118°
2026-05-07 12:42 48.76154 11.17523 10011 ft 285 kts 118°
2026-05-07 12:42 48.75245 11.20217 10012 ft 285 kts 118°
2026-05-07 12:43 48.74339 11.22894 10011 ft 285 kts 118°
2026-05-07 12:43 48.73447 11.25529 10011 ft 285 kts 118°
2026-05-07 12:43 48.72533 11.28229 10011 ft 286 kts 119°
2026-05-07 12:43 48.71637 11.30870 10012 ft 286 kts 119°
2026-05-07 12:44 48.70716 11.33582 10010 ft 286 kts 119°
2026-05-07 12:44 48.69808 11.36253 10010 ft 286 kts 119°
2026-05-07 12:44 48.68909 11.38894 10009 ft 286 kts 119°
2026-05-07 12:44 48.67994 11.41582 10013 ft 286 kts 119°
2026-05-07 12:45 48.67070 11.44289 10013 ft 291 kts 118°
2026-05-07 12:45 48.66146 11.46999 10013 ft 295 kts 119°
2026-05-07 12:45 48.65202 11.49760 10012 ft 298 kts 118°
2026-05-07 12:45 48.64243 11.52565 10012 ft 300 kts 119°
2026-05-07 12:46 48.63290 11.55351 10010 ft 301 kts 119°
2026-05-07 12:46 48.62335 11.58136 10010 ft 301 kts 119°
2026-05-07 12:46 48.61380 11.60921 10007 ft 297 kts 119°
2026-05-07 12:46 48.60430 11.63685 10007 ft 295 kts 119°
2026-05-07 12:47 48.59489 11.66419 10004 ft 293 kts 120°
2026-05-07 12:47 48.58548 11.69157 10002 ft 291 kts 120°
2026-05-07 12:47 48.57612 11.71869 9995 ft 290 kts 120°
2026-05-07 12:47 48.56688 11.74548 10002 ft 289 kts 120°
2026-05-07 12:48 48.55758 11.77241 9747 ft 291 kts 120°
2026-05-07 12:48 48.54829 11.79926 9505 ft 289 kts 120°
2026-05-07 12:48 48.53895 11.82626 9246 ft 287 kts 120°
2026-05-07 12:48 48.52980 11.85267 8985 ft 285 kts 120°
2026-05-07 12:49 48.52064 11.87908 8720 ft 284 kts 120°
2026-05-07 12:49 48.51162 11.90508 8410 ft 283 kts 120°
2026-05-07 12:49 48.50250 11.93128 8034 ft 281 kts 119°
2026-05-07 12:49 48.49343 11.95738 7657 ft 280 kts 119°
2026-05-07 12:50 48.48446 11.98313 7287 ft 279 kts 119°
2026-05-07 12:50 48.47553 12.00878 6903 ft 278 kts 119°
2026-05-07 12:50 48.46938 12.03622 6493 ft 279 kts 91°
2026-05-07 12:50 48.47066 12.06482 6146 ft 275 kts 83°
2026-05-07 12:51 48.47274 12.09346 5834 ft 271 kts 83°
2026-05-07 12:51 48.47480 12.12123 5577 ft 266 kts 83°
2026-05-07 12:51 48.47681 12.14875 5315 ft 263 kts 83°
2026-05-07 12:51 48.47876 12.17594 5072 ft 260 kts 85°
2026-05-07 12:52 48.47419 12.20072 4964 ft 244 kts 129°
2026-05-07 12:52 48.46108 12.21444 4968 ft 227 kts 168°
2026-05-07 12:52 48.44551 12.21851 4967 ft 224 kts 173°
2026-05-07 12:52 48.43022 12.22211 4957 ft 223 kts 174°
2026-05-07 12:53 48.41565 12.21838 4972 ft 213 kts 216°
2026-05-07 12:53 48.40570 12.20233 4967 ft 207 kts 233°
2026-05-07 12:53 48.39677 12.18553 4963 ft 205 kts 234°
2026-05-07 12:53 48.38963 12.16754 4941 ft 201 kts 262°
2026-05-07 12:54 48.38945 12.14680 4975 ft 197 kts 268°
2026-05-07 12:54 48.38881 12.12634 4964 ft 197 kts 267°
2026-05-07 12:54 48.38778 12.10572 4969 ft 196 kts 265°
2026-05-07 12:54 48.38647 12.08528 4847 ft 197 kts 264°
2026-05-07 12:55 48.38513 12.06575 4610 ft 180 kts 265°
2026-05-07 12:55 48.38383 12.04753 4390 ft 169 kts 265°
2026-05-07 12:55 48.38256 12.03023 4178 ft 165 kts 265°
2026-05-07 12:55 48.38134 12.01342 3968 ft 161 kts 265°
2026-05-07 12:56 48.38011 11.99682 3758 ft 158 kts 266°
2026-05-07 12:56 48.37887 11.98001 3546 ft 163 kts 266°
2026-05-07 12:56 48.37759 11.96288 3329 ft 166 kts 265°
2026-05-07 12:56 48.37629 11.94559 3106 ft 168 kts 265°
2026-05-07 12:57 48.37498 11.92810 2879 ft 170 kts 265°
2026-05-07 12:57 48.37368 11.91032 2647 ft 170 kts 265°
2026-05-07 12:57 48.37227 11.89278 2414 ft 168 kts 265°
2026-05-07 12:57 48.37107 11.87637 2194 ft 145 kts 264°
2026-05-07 12:58 48.37003 11.86262 2028 ft 126 kts 264°
2026-05-07 12:58 48.36906 11.84995 1853 ft 120 kts 264°
2026-05-07 12:58 48.36807 11.83797 1701 ft 107 kts 265°
2026-05-07 12:58 48.36736 11.82839 1567 ft 82 kts 264°
2026-05-07 12:59 48.36674 11.81993 1463 ft 84 kts 268°
2026-05-07 12:59 48.36615 11.81180 1443 ft 65 kts 269°
2026-05-07 12:59 48.36575 11.80594 1445 ft 50 kts 266°
2026-05-07 12:59 48.36526 11.80140 1445 ft 39 kts 262°
2026-05-07 13:00 48.36470 11.79794 1449 ft 27 kts 247°
2026-05-07 13:00 48.36409 11.79624 1450 ft 11 kts 237°
2026-05-07 13:00 48.36391 11.79581 1451 ft 0 kts 238°
2026-05-07 13:01 48.36384 11.79565 1451 ft 9 kts 236°
2026-05-07 13:01 48.36318 11.79432 1454 ft 18 kts 232°
2026-05-07 13:01 48.36278 11.79351 1455 ft 5 kts 229°
2026-05-07 13:01 48.36271 11.79337 1455 ft 0 kts 231°
2026-05-07 13:02 48.36238 11.79304 1455 ft 15 kts 200°
2026-05-07 13:03 48.36151 11.79308 1456 ft 0 kts 167°
2026-05-07 13:03 48.36137 11.79311 1457 ft 14 kts 176°
2026-05-07 13:04 48.36032 11.79327 1461 ft 18 kts 174°
2026-05-07 13:04 48.35926 11.79359 1462 ft 14 kts 150°
2026-05-07 13:04 48.35815 11.79416 1462 ft 14 kts 122°
2026-05-07 13:04 48.35823 11.79600 1460 ft 22 kts 83°
2026-05-07 13:05 48.35841 11.79829 1458 ft 20 kts 83°
2026-05-07 13:05 48.35860 11.80053 1455 ft 22 kts 84°
2026-05-07 13:05 48.35876 11.80252 1454 ft 15 kts 71°
2026-05-07 13:05 48.35930 11.80304 1453 ft 7 kts 352°
2026-05-07 13:06 48.35938 11.80303 1453 ft 0 kts 351°